FW8483 Weather Reports


time (UTC)temp
C
wind
direction
speed
KPH
gust
KPH
rain 1hr
cm
rain 24hr
cm
rain mn
cm
humidity
%
barometer
mb
20260901142017 28 26 4.8 11.3 0.00 0.00 0.00 82 1018.7
20260901141513 28 72 8.0 11.3 0.00 0.00 0.00 82 1018.6
20260901141003 28 69 4.8 9.7 0.00 0.00 0.00 82 1018.5
20260901140509 28 52 4.8 8.0 0.00 0.00 0.00 83 1018.5
20260901140022 28 69 0.0 11.3 0.00 0.00 0.00 85 1018.5
20260901135512 27 59 3.2 11.3 0.00 0.00 0.00 84 1018.5
20260901135009 27 72 4.8 9.7 0.00 0.00 0.00 85 1018.5
20260901134523 27 74 4.8 9.7 0.00 0.00 0.00 86 1018.5
20260901134013 27 113 3.2 12.9 0.00 0.00 0.00 86 1018.4
20260901133503 27 51 4.8 12.9 0.00 0.00 0.00 87 1018.3
20260901133004 27 74 8.0 12.9 0.00 0.00 0.00 86 1018.3
20260901132505 26 92 4.8 11.3 0.00 0.00 0.00 87 1018.2
20260901132005 26 42 4.8 8.0 0.00 0.00 0.00 87 1018.2
20260901131514 26 24 3.2 6.4 0.00 0.00 0.00 90 1018.2
20260901131003 26 68 3.2 6.4 0.00 0.00 0.00 89 1018.2
20260901130507 26 86 4.8 8.0 0.00 0.00 0.00 89 1018.2
20260901130016 26 53 4.8 8.0 0.00 0.00 0.00 90 1018.2
20260901125509 26 72 1.6 8.0 0.00 0.00 0.00 91 1018.3
20260901125011 25 34 1.6 8.0 0.00 0.00 0.00 91 1018.2
20260901124522 25 35 3.2 6.4 0.00 0.00 0.00 92 1018.2
20260901124012 25 67 4.8 6.4 0.00 0.00 0.00 92 1018.3
20260901123512 25 53 0.0 6.4 0.00 0.00 0.00 94 1018.2
20260901123037 25 74 3.2 6.4 0.00 0.00 0.00 94 1018.2
20260901122504 25 54 3.2 6.4 0.00 0.00 0.00 94 1018.3
20260901122003 24 75 3.2 6.4 0.00 0.00 0.00 95 1018.2
20260901121508 24 66 3.2 6.4 0.00 0.00 0.00 96 1018.3
20260901121004 24 57 0.0 4.8 0.00 0.00 0.00 96 1018.3
20260901120504 23 65 1.6 4.8 0.00 0.00 0.00 96 1018.1
20260901120015 23 13 0.0 3.2 0.00 0.00 0.00 97 1018.0
20260901115510 23 70 0.0 0.0 0.00 0.00 0.00 97 1018.0
20260901115008 23 78 0.0 0.0 0.00 0.00 0.00 97 1017.9
20260901114520 23 66 0.0 0.0 0.00 0.00 0.00 97 1017.8
20260901114009 23 57 0.0 0.0 0.00 0.00 0.00 97 1017.7
20260901113513 23 37 0.0 3.2 0.00 0.00 0.00 97 1017.7
20260901113027 23 42 0.0 3.2 0.00 0.00 0.00 97 1017.9
20260901112512 23 52 0.0 1.6 0.00 0.00 0.00 97 1017.9
20260901112018 23 52 0.0 1.6 0.00 0.00 0.00 97 1017.9
20260901111508 23 41 0.0 0.0 0.00 0.00 0.00 97 1017.9
20260901111004 23 43 0.0 0.0 0.00 0.00 0.00 97 1017.8
20260901110504 23 43 0.0 0.0 0.00 0.00 0.00 97 1017.7
20260901110019 23 43 0.0 0.0 0.00 0.00 0.00 97 1017.6
20260901105506 23 43 0.0 0.0 0.00 0.00 0.00 97 1017.5
20260901105009 23 44 0.0 0.0 0.00 0.00 0.00 97 1017.4
20260901104527 23 12 0.0 0.0 0.00 0.00 0.00 97 1017.3
20260901104009 23 9 0.0 0.0 0.00 0.00 0.00 97 1017.2
20260901103509 23 15 0.0 0.0 0.00 0.00 0.00 97 1017.1
20260901103025 23 15 0.0 0.0 0.00 0.00 0.00 97 1017.1
20260901102514 23 15 0.0 0.0 0.00 0.00 0.00 97 1017.0
20260901102015 23 15 0.0 0.0 0.00 0.00 0.00 97 1017.0
20260901101530 23 15 0.0 0.0 0.00 0.00 0.00 97 1017.0
20260901101002 23 15 0.0 0.0 0.00 0.00 0.00 97 1017.0
20260901100504 23 15 0.0 0.0 0.00 0.00 0.00 97 1017.0
20260901100013 23 15 0.0 0.0 0.00 0.00 0.00 97 1016.9
20260901095507 23 15 0.0 0.0 0.00 0.00 0.00 97 1016.8
20260901095008 23 15 0.0 0.0 0.00 0.00 0.00 97 1016.7
20260901094519 23 15 0.0 0.0 0.00 0.00 0.00 97 1016.6
20260901094009 23 15 0.0 0.0 0.00 0.00 0.00 97 1016.7
20260901093509 23 15 0.0 0.0 0.00 0.00 0.00 97 1016.6
20260901093026 23 15 0.0 0.0 0.00 0.00 0.00 97 1016.5
20260901092515 23 15 0.0 0.0 0.00 0.00 0.00 97 1016.5
20260901092017 23 15 0.0 0.0 0.00 0.00 0.00 97 1016.6
20260901091532 23 15 0.0 0.0 0.00 0.00 0.00 97 1016.6
20260901091015 23 15 0.0 0.0 0.00 0.00 0.00 97 1016.6
20260901090514 23 15 0.0 0.0 0.00 0.00 0.00 97 1016.5
20260901090025 23 15 0.0 0.0 0.00 0.00 0.00 97 1016.6
20260901085503 23 15 0.0 0.0 0.00 0.00 0.00 97 1016.6
20260901085007 23 15 0.0 0.0 0.00 0.00 0.00 97 1016.6
20260901084516 23 15 0.0 0.0 0.00 0.00 0.00 97 1016.6
20260901084007 23 15 0.0 0.0 0.00 0.00 0.00 97 1016.7
20260901083512 23 15 0.0 0.0 0.00 0.00 0.00 97 1016.6
20260901083033 23 15 0.0 0.0 0.00 0.00 0.00 97 1016.6
20260901082510 23 15 0.0 0.0 0.00 0.00 0.00 96 1016.6
20260901082014 23 15 0.0 0.0 0.00 0.00 0.00 96 1016.7
20260901081527 23 15 0.0 0.0 0.00 0.00 0.00 97 1016.6
20260901081014 23 15 0.0 0.0 0.00 0.00 0.00 97 1016.6
20260901080515 23 15 0.0 0.0 0.00 0.00 0.00 97 1016.6
20260901080033 23 15 0.0 0.0 0.00 0.00 0.00 96 1016.6
20260901075516 23 15 0.0 0.0 0.00 0.00 0.00 96 1016.6
20260901075007 23 15 0.0 0.0 0.00 0.00 0.00 96 1016.7
20260901074522 23 15 0.0 0.0 0.00 0.00 0.00 96 1016.7
20260901074007 23 15 0.0 0.0 0.00 0.00 0.00 96 1016.7
20260901073507 23 15 0.0 0.0 0.00 0.00 0.00 96 1016.7
20260901073034 23 15 0.0 0.0 0.00 0.00 0.00 96 1016.7
20260901072512 23 15 0.0 0.0 0.00 0.00 0.00 96 1016.7
20260901072010 23 15 0.0 0.0 0.00 0.00 0.00 96 1016.8
20260901071528 23 15 0.0 0.0 0.00 0.00 0.00 97 1016.8
20260901071017 23 15 0.0 0.0 0.00 0.00 0.00 96 1016.8
20260901070512 23 64 0.0 0.0 0.00 0.00 0.00 96 1017.0
20260901070032 23 343 0.0 0.0 0.00 0.00 0.00 97 1017.0
20260901065514 23 343 0.0 0.0 0.00 0.00 0.00 97 1016.9
20260901065018 23 90 0.0 0.0 0.00 0.00 0.00 96 1017.0
20260901064538 23 90 0.0 0.0 0.00 0.00 0.00 96 1017.0
20260901064008 23 90 0.0 0.0 0.00 0.00 0.00 96 1017.0
20260901063505 23 90 0.0 0.0 0.00 0.00 0.00 96 1017.1
20260901063021 23 90 0.0 0.0 0.00 0.00 0.00 96 1017.1
20260901062507 23 90 0.0 0.0 0.00 0.00 0.00 96 1017.2
20260901062011 23 90 0.0 0.0 0.00 0.00 0.00 96 1017.2
20260901061614 23 90 0.0 0.0 0.00 0.00 0.00 96 1017.2
20260901061013 23 90 0.0 0.0 0.00 0.00 0.00 96 1017.4
20260901060515 23 90 0.0 0.0 0.00 0.00 0.00 96 1017.5
20260901060035 23 90 0.0 0.0 0.00 0.00 0.00 96 1017.5
20260901055514 24 90 0.0 0.0 0.00 0.00 0.00 96 1017.6
20260901055016 24 90 0.0 0.0 0.00 0.00 0.00 96 1017.6
20260901054534 24 90 0.0 0.0 0.00 0.00 0.00 96 1017.6
20260901054016 24 90 0.0 0.0 0.00 0.00 0.00 95 1017.6
20260901053518 24 90 0.0 0.0 0.00 0.00 0.00 96 1017.5
20260901053021 24 90 0.0 0.0 0.00 0.00 0.00 96 1017.5
20260901052509 24 90 0.0 0.0 0.00 0.00 0.00 96 1017.6
20260901052012 24 90 0.0 0.0 0.00 0.00 0.00 96 1017.6
20260901051523 24 91 0.0 0.0 0.00 0.00 0.00 95 1017.7
20260901051012 24 90 0.0 0.0 0.00 0.00 0.00 96 1017.8
20260901050514 24 91 0.0 0.0 0.00 0.00 0.00 96 1017.8
20260901050028 24 91 0.0 0.0 0.00 0.00 0.00 96 1017.8
20260901045515 24 90 0.0 0.0 0.00 0.00 0.00 95 1017.7
20260901045013 24 91 0.0 0.0 0.00 0.00 0.00 95 1017.8
20260901044535 24 91 0.0 0.0 0.00 0.00 0.00 95 1017.7
20260901044015 24 90 0.0 0.0 0.00 0.00 0.00 95 1017.7
20260901043517 24 90 0.0 0.0 0.00 0.00 0.00 95 1017.7
20260901043034 24 90 0.0 0.0 0.00 0.00 0.00 94 1017.8
20260901042518 25 90 0.0 0.0 0.00 0.00 0.00 94 1017.7
20260901042010 25 237 0.0 0.0 0.00 0.00 0.00 95 1017.8
20260901041526 25 237 0.0 0.0 0.00 0.00 0.00 95 1017.7
20260901041010 25 237 0.0 0.0 0.00 0.00 0.00 95 1017.8
20260901040513 25 237 0.0 0.0 0.00 0.00 0.00 94 1017.8
20260901040035 25 236 0.0 0.0 0.00 0.00 0.00 94 1017.8
20260901035518 25 237 0.0 0.0 0.00 0.00 0.00 95 1017.8
20260901035013 25 237 0.0 0.0 0.00 0.00 0.00 94 1017.8
20260901034535 25 237 0.0 0.0 0.00 0.00 0.00 94 1017.8
20260901034014 25 237 0.0 0.0 0.00 0.00 0.00 94 1017.8
20260901033518 25 236 0.0 0.0 0.00 0.00 0.00 94 1017.8
20260901033033 25 236 0.0 0.0 0.00 0.00 0.00 93 1017.8
20260901032514 25 237 0.0 0.0 0.00 0.00 0.00 93 1017.9
20260901032016 25 237 0.0 0.0 0.00 0.00 0.00 93 1017.9
20260901031536 25 237 0.0 0.0 0.00 0.00 0.00 93 1017.9
20260901031009 25 237 0.0 0.0 0.00 0.00 0.00 93 1017.9
20260901030511 25 237 0.0 0.0 0.00 0.00 0.00 93 1018.0
20260901030030 25 175 0.0 0.0 0.00 0.00 0.00 93 1018.0
20260901025514 25 175 0.0 0.0 0.00 0.00 0.00 93 1018.0
20260901025014 25 175 0.0 0.0 0.00 0.00 0.00 92 1018.0
20260901024529 25 175 0.0 0.0 0.00 0.00 0.00 92 1018.0
20260901024016 25 175 0.0 0.0 0.00 0.00 0.00 92 1018.1
20260901023517 25 175 0.0 0.0 0.00 0.00 0.00 92 1018.0
20260901023038 25 175 0.0 0.0 0.00 0.00 0.00 92 1017.9
20260901022514 25 244 0.0 0.0 0.00 0.00 0.00 92 1017.9
20260901022022 25 244 0.0 0.0 0.00 0.00 0.00 92 1017.9
20260901021535 25 244 0.0 0.0 0.00 0.00 0.00 92 1017.9
20260901021003 25 88 0.0 0.0 0.00 0.00 0.00 91 1017.8
20260901020502 26 168 0.0 0.0 0.00 0.00 0.00 90 1017.6
20260901020006 26 168 0.0 0.0 0.00 0.00 0.00 90 1017.6
20260901015502 26 200 0.0 0.0 0.00 0.00 0.00 90 1017.5
20260901015002 26 200 0.0 0.0 0.00 0.00 0.00 90 1017.3
20260901014503 26 114 0.0 0.0 0.00 0.00 0.00 90 1017.3
20260901014003 26 114 0.0 0.0 0.00 0.00 0.00 90 1017.3
20260901013503 26 114 0.0 0.0 0.00 0.00 0.00 89 1017.2
20260901013005 26 114 0.0 0.0 0.00 0.00 0.00 88 1017.1
20260901012502 26 114 0.0 0.0 0.00 0.00 0.00 88 1017.1
20260901012002 26 114 0.0 0.0 0.00 0.00 0.00 88 1017.0
20260901011505 26 114 0.0 0.0 0.00 0.00 0.00 87 1016.8
20260901011002 26 114 0.0 0.0 0.00 0.00 0.00 87 1016.8
20260901010502 26 114 0.0 0.0 0.00 0.00 0.00 86 1016.8
20260901010008 27 114 0.0 0.0 0.00 0.00 0.00 85 1016.8
20260901005504 27 114 0.0 0.0 0.00 0.00 0.00 83 1016.7
20260901005002 27 114 0.0 0.0 0.00 0.00 0.00 84 1016.6
20260901004506 27 114 0.0 0.0 0.00 0.00 0.00 82 1016.6
20260901004003 27 114 0.0 0.0 0.00 0.00 0.00 82 1016.6
20260901003503 27 114 0.0 0.0 0.00 0.00 0.00 81 1016.5
20260901003006 27 114 0.0 0.0 0.00 0.00 0.00 81 1016.4
20260901002503 27 114 0.0 0.0 0.00 0.00 0.00 80 1016.3
20260901002005 28 114 0.0 0.0 0.00 0.00 0.00 80 1016.2
20260901001513 28 114 0.0 0.0 0.00 0.00 0.00 78 1016.2
20260901001002 28 114 0.0 0.0 0.00 0.00 0.00 78 1016.2
20260901000502 28 114 0.0 0.0 0.00 0.00 0.00 78 1016.2
20260901000013 29 5 0.0 0.0 0.00 0.00 0.00 78 1016.3
20260831235503 29 40 0.0 0.0 0.00 0.00 0.00 76 1016.3
20260831235004 30 40 0.0 0.0 0.00 0.00 0.00 76 1016.2
20260831234505 30 40 0.0 0.0 0.00 0.00 0.00 74 1016.2
20260831234004 30 221 0.0 0.0 0.00 0.00 0.00 74 1016.2
20260831233502 30 221 0.0 0.0 0.00 0.00 0.00 73 1016.2
20260831233005 30 221 0.0 0.0 0.00 0.00 0.00 73 1016.2
20260831232505 31 222 0.0 0.0 0.00 0.00 0.00 73 1016.3
20260831232002 31 97 0.0 0.0 0.00 0.00 0.00 74 1016.3
20260831231507 31 97 0.0 0.0 0.00 0.00 0.00 72 1016.3
20260831231003 31 97 0.0 0.0 0.00 0.00 0.00 71 1016.3
20260831230503 31 97 0.0 3.2 0.00 0.00 0.00 70 1016.4
20260831230012 31 98 0.0 11.3 0.00 0.00 0.00 68 1016.3
20260831225502 31 90 3.2 11.3 0.00 0.00 0.00 67 1016.4
20260831225003 31 71 3.2 11.3 0.00 0.00 0.00 65 1016.4
20260831224507 31 82 8.0 11.3 0.00 0.00 0.00 65 1016.3
20260831224004 31 71 6.4 11.3 0.00 0.00 0.00 65 1016.3
20260831223504 31 64 6.4 11.3 0.00 0.00 0.00 64 1016.5
20260831223016 31 77 4.8 14.5 0.00 0.00 0.00 64 1016.5
20260831222507 31 84 6.4 14.5 0.00 0.00 0.00 63 1016.5
20260831222003 32 72 4.8 14.5 0.00 0.00 0.00 63 1016.5
20260831221521 32 78 4.8 14.5 0.00 0.00 0.00 65 1016.5
20260831221004 32 69 1.6 14.5 0.00 0.00 0.00 66 1016.6
20260831220503 32 59 4.8 14.5 0.00 0.00 0.00 64 1016.5
20260831220010 32 40 6.4 11.3 0.00 0.00 0.00 63 1016.5
20260831215506 32 26 3.2 12.9 0.00 0.00 0.00 65 1016.4
20260831215003 31 81 3.2 12.9 0.00 0.00 0.00 63 1016.4
20260831214506 31 27 3.2 14.5 0.00 0.00 0.00 63 1016.4
20260831214003 32 84 8.0 17.7 0.00 0.00 0.00 62 1016.4
20260831213505 32 83 11.3 17.7 0.00 0.00 0.00 63 1016.5
20260831213008 32 74 4.8 11.3 0.00 0.00 0.00 64 1016.4
20260831212504 32 40 1.6 6.4 0.00 0.00 0.00 62 1016.4
20260831212003 31 76 3.2 6.4 0.00 0.00 0.00 64 1016.5
20260831211507 31 23 1.6 4.8 0.00 0.00 0.00 64 1016.5
20260831211004 31 65 1.6 9.7 0.00 0.00 0.00 63 1016.6
20260831210505 32 42 1.6 20.9 0.00 0.00 0.00 60 1016.7
20260831210008 32 30 6.4 20.9 0.00 0.00 0.00 59 1016.6
20260831205504 32 85 12.9 20.9 0.00 0.00 0.00 63 1016.6
20260831205004 32 98 3.2 11.3 0.00 0.00 0.00 62 1016.6
20260831204509 32 127 6.4 14.5 0.00 0.00 0.00 60 1016.6
20260831204005 32 46 8.0 16.1 0.00 0.00 0.00 59 1016.7
20260831203504 32 80 11.3 16.1 0.00 0.00 0.00 61 1016.7
20260831203009 32 83 6.4 12.9 0.00 0.00 0.00 65 1016.7
20260831202504 32 89 6.4 16.1 0.00 0.00 0.00 63 1016.8
20260831202007 32 106 8.0 14.5 0.00 0.00 0.00 64 1016.8
20260831201512 32 62 6.4 17.7 0.00 0.00 0.00 64 1016.8
20260831201002 32 30 9.7 17.7 0.00 0.00 0.00 67 1016.8
20260831200502 31 56 0.0 9.7 0.00 0.00 0.00 65 1016.8
20260831200009 31 100 3.2 14.5 0.00 0.00 0.00 68 1016.9
20260831195506 31 90 6.4 14.5 0.00 0.00 0.00 66 1016.9
20260831195005 32 98 6.4 14.5 0.00 0.00 0.00 66 1017.0
20260831194522 32 74 4.8 11.3 0.00 0.00 0.00 65 1017.0
20260831194005 32 96 4.8 14.5 0.00 0.00 0.00 66 1017.1
20260831193505 32 89 6.4 14.5 0.00 0.00 0.00 64 1017.1
20260831193010 31 40 6.4 12.9 0.00 0.00 0.00 66 1017.1
20260831192502 31 51 6.4 14.5 0.00 0.00 0.00 67 1017.2
20260831192003 31 96 6.4 14.5 0.00 0.00 0.00 66 1017.3
20260831191512 31 101 6.4 12.9 0.00 0.00 0.00 67 1017.2
20260831191005 31 96 4.8 12.9 0.00 0.00 0.00 70 1017.2
20260831190505 31 84 8.0 16.1 0.00 0.00 0.00 67 1017.2
20260831190012 31 94 6.4 16.1 0.00 0.00 0.00 66 1017.3
20260831185505 32 80 6.4 16.1 0.00 0.00 0.00 65 1017.4
20260831185006 32 70 9.7 17.7 0.00 0.00 0.00 70 1017.4
20260831184514 32 88 8.0 17.7 0.00 0.00 0.00 66 1017.4
20260831184003 31 72 4.8 17.7 0.00 0.00 0.00 70 1017.5
20260831183503 31 76 8.0 17.7 0.00 0.00 0.00 66 1017.6
20260831183012 31 136 8.0 16.1 0.00 0.00 0.00 67 1017.7
20260831182506 31 103 9.7 16.1 0.00 0.00 0.00 68 1017.8
20260831182007 31 111 8.0 14.5 0.00 0.00 0.00 67 1017.8
20260831181515 31 101 9.7 14.5 0.00 0.00 0.00 65 1017.9
20260831181007 31 88 8.0 14.5 0.00 0.00 0.00 68 1017.9
20260831180507 31 84 8.0 14.5 0.00 0.00 0.00 68 1017.9
20260831180012 31 63 9.7 17.7 0.00 0.00 0.00 66 1018.0
20260831175507 31 45 4.8 17.7 0.00 0.00 0.00 66 1018.0
20260831175003 31 96 11.3 16.1 0.00 0.00 0.00 68 1018.0
20260831174513 31 51 9.7 14.5 0.00 0.00 0.00 71 1018.1
20260831174008 31 104 6.4 14.5 0.00 0.00 0.00 67 1018.1
20260831173507 31 60 6.4 17.7 0.00 0.00 0.00 69 1018.1
20260831173016 31 33 11.3 16.1 0.00 0.00 0.00 69 1018.2
20260831172508 31 97 6.4 12.9 0.00 0.00 0.00 72 1018.3
20260831172009 30 99 6.4 12.9 0.00 0.00 0.00 69 1018.3
20260831171522 30 28 6.4 12.9 0.00 0.00 0.00 72 1018.4
20260831171003 30 74 8.0 12.9 0.00 0.00 0.00 71 1018.5
20260831170506 30 85 8.0 19.3 0.00 0.00 0.00 73 1018.5
20260831170003 30 87 6.4 19.3 0.00 0.00 0.00 70 1018.7
20260831165501 30 85 8.0 12.9 0.00 0.00 0.00 72 1018.7
20260831165002 30 96 0.0 12.9 0.00 0.00 0.00 73 1018.7
20260831164503 30 72 8.0 12.9 0.00 0.00 0.00 71 1018.7
20260831164003 30 57 4.8 14.5 0.00 0.00 0.00 75 1018.7
20260831163503 30 94 8.0 16.1 0.00 0.00 0.00 74 1018.7
20260831163008 30 59 8.0 16.1 0.00 0.00 0.00 71 1018.6
20260831162504 30 90 4.8 16.1 0.00 0.00 0.00 76 1018.8
20260831162004 29 71 3.2 16.1 0.00 0.00 0.00 77 1018.7
20260831161505 29 30 9.7 17.7 0.00 0.00 0.00 75 1018.7
20260831161003 29 26 8.0 17.7 0.00 0.00 0.00 78 1018.9
20260831160503 30 58 8.0 14.5 0.00 0.00 0.00 76 1019.1
20260831160010 29 65 6.4 14.5 0.00 0.00 0.00 78 1019.2
20260831155504 29 9 4.8 14.5 0.00 0.00 0.00 78 1019.2
20260831155002 29 98 6.4 16.1 0.00 0.00 0.00 79 1019.4
20260831154519 29 107 9.7 16.1 0.00 0.00 0.00 79 1019.4
20260831154003 29 94 4.8 12.9 0.00 0.00 0.00 80 1019.4
20260831153502 28 83 4.8 14.5 0.00 0.00 0.00 80 1019.5
20260831153009 28 94 4.8 14.5 0.00 0.00 0.00 81 1019.5
20260831152503 28 82 11.3 14.5 0.00 0.00 0.00 80 1019.5
20260831152006 28 352 4.8 12.9 0.00 0.00 0.00 82 1019.5
20260831151510 28 82 9.7 12.9 0.00 0.00 0.00 80 1019.5
20260831151005 28 58 8.0 12.9 0.00 0.00 0.00 83 1019.5
20260831150504 28 59 8.0 16.1 0.00 0.00 0.00 81 1019.4
20260831150010 28 74 9.7 16.1 0.00 0.00 0.00 82 1019.5
20260831145503 28 70 9.7 16.1 0.00 0.00 0.00 83 1019.5
20260831145003 27 107 4.8 12.9 0.00 0.00 0.00 84 1019.4
20260831144521 27 71 8.0 12.9 0.00 0.00 0.00 84 1019.4
20260831144005 27 38 6.4 14.5 0.00 0.00 0.00 85 1019.3
20260831143504 27 86 9.7 14.5 0.00 0.00 0.00 85 1019.4
20260831143008 27 90 8.0 11.3 0.00 0.00 0.00 86 1019.5
20260831142502 26 69 6.4 12.9 0.00 0.00 0.00 87 1019.6